Fryeburg, ME

9:57 AM EDT on August 27, 2016 (GMT -0400)
Eastern Slopes Regional

Weather History for KIZG - August, 2013

Change the Weather History Date:

Friday, August 9, 2013

  Actual Average Record
Temperature  
Mean Temperature 68 °F -  
Max Temperature 75 °F 80 °F 100 °F (2001)
Min Temperature 64 °F 54 °F 43 °F (2002)
Cooling Degree Days 4    
Growing Degree Days 18 (Base 50)    
Moisture  
Dew Point 68 °F    
Average Humidity 96    
Maximum Humidity 100    
Minimum Humidity 87    
Precipitation  
Precipitation 2.15 in - - ()
Sea Level Pressure  
Sea Level Pressure 29.88 in    
Wind  
Wind Speed 1 mph (SSW)    
Max Wind Speed 8 mph    
Max Gust Speed -    
Visibility 8 miles    
Events Rain , Thunderstorm    
Averages and records for this station are not official NWS values.
T = Trace of Precipitation, MM = Missing Value Source: NWS Daily Summary

Daily Weather History Graph

Daily Weather History Graph

Search for Another Location

Airport or City:

Trip Planner

Search our weather history database for the weather conditions in past years. The results will help you decide how hot, cold, wet, or windy it might be!

Date:

Astronomy

Aug. 09, 2013 Rise Set
Actual Time 5:41 AM EDT 7:56 PM EDT
Civil Twilight 5:09 AM EDT 8:28 PM EDT
Nautical Twilight 4:29 AM EDT 9:07 PM EDT
Astronomical Twilight 3:45 AM EDT 9:51 PM EDT
Moon 8:32 AM EDT (8/9) 8:55 PM EDT (8/9)
Length of Visible Light 15h 19m
Length of Day
14h 15m
Waxing Crescent, 7% of the Moon is Illuminated
Aug 9
Waxing Crescent
Aug 14
First Quarter
Aug 20
Full
Aug 28
Last Quarter
Sep 5
New

Hourly Weather History & Observations

Time (EDT) Temp. Dew Point Humidity Pressure Visibility Wind Dir Wind Speed Gust Speed Precip Events Conditions
12:54 AM 64.9 °F 64.0 °F 97% 30.01 in 10.0 mi Calm Calm - N/A   Mostly Cloudy
1:18 AM 66.2 °F 64.4 °F 94% 30.01 in 10.0 mi Calm Calm - N/A   Mostly Cloudy
1:27 AM 66.2 °F 64.4 °F 94% 30.01 in 10.0 mi Calm Calm - N/A   Mostly Cloudy
1:54 AM 66.9 °F 66.0 °F 97% 29.99 in 10.0 mi Calm Calm - N/A   Overcast
2:50 AM 66.2 °F 66.2 °F 100% 29.98 in 2.0 mi Calm Calm - N/A   Overcast
2:54 AM 66.9 °F 66.9 °F 100% 29.98 in 1.8 mi Calm Calm - N/A   Overcast
3:12 AM 66.2 °F 66.2 °F 100% 29.97 in 1.2 mi Calm Calm - N/A   Overcast
3:21 AM 66.2 °F 66.2 °F 100% 29.97 in 1.8 mi Calm Calm - N/A   Overcast
3:54 AM 66.9 °F 66.9 °F 100% 29.97 in 1.5 mi Calm Calm - N/A   Overcast
4:02 AM 68.0 °F 66.2 °F 94% 29.96 in 3.0 mi Calm Calm - N/A   Overcast
4:54 AM 68.0 °F 66.9 °F 96% 29.95 in 10.0 mi Calm Calm - 0.00 in Thunderstorm Overcast
5:12 AM 68.0 °F 66.2 °F 94% 29.95 in 10.0 mi Calm Calm - N/A Thunderstorm Overcast
5:30 AM 68.0 °F 68.0 °F 100% 29.95 in 5.0 mi Calm Calm - 0.19 in Rain , Thunderstorm Light Thunderstorms and Rain
5:54 AM 68.0 °F 68.0 °F 100% 29.95 in 10.0 mi Calm Calm - 0.20 in Rain , Thunderstorm Light Rain
5:59 AM 69.8 °F 68.0 °F 94% 29.94 in 10.0 mi Calm Calm - 0.00 in   Overcast
6:20 AM 69.8 °F 68.0 °F 94% 29.94 in 4.0 mi NNE 4.6 mph - 0.17 in Rain , Thunderstorm Heavy Thunderstorms and Rain
6:35 AM 69.8 °F 69.8 °F 100% 29.94 in 10.0 mi Calm Calm - 0.20 in Rain , Thunderstorm Light Rain
6:47 AM 69.8 °F 69.8 °F 100% 29.94 in 10.0 mi Calm Calm - 0.20 in Rain , Thunderstorm Light Rain
6:54 AM 70.0 °F 69.1 °F 97% 29.94 in 10.0 mi Calm Calm - 0.20 in Rain Light Rain
7:03 AM 69.8 °F 69.8 °F 100% 29.94 in 10.0 mi Calm Calm - 0.00 in   Overcast
7:51 AM 69.8 °F 69.8 °F 100% 29.94 in 10.0 mi SW 3.5 mph - 0.00 in   Overcast
7:54 AM 70.0 °F 69.1 °F 97% 29.94 in 10.0 mi SSW 3.5 mph - 0.00 in   Overcast
8:35 AM 71.6 °F 69.8 °F 94% 29.95 in 10.0 mi South 3.5 mph - N/A   Overcast
8:54 AM 71.1 °F 69.1 °F 93% 29.94 in 10.0 mi SSW 4.6 mph - N/A   Overcast
9:26 AM 71.6 °F 69.8 °F 94% 29.93 in 7.0 mi Variable 4.6 mph - 0.14 in Rain Heavy Rain
9:54 AM 72.0 °F 70.0 °F 93% 29.93 in 10.0 mi Variable 4.6 mph - 0.15 in Rain Light Rain
10:54 AM 73.9 °F 70.0 °F 87% 29.92 in 10.0 mi South 3.5 mph - 0.00 in   Mostly Cloudy
11:54 AM 73.0 °F 69.1 °F 87% 29.91 in 10.0 mi South 8.1 mph - 0.00 in Rain Light Rain
12:54 PM 73.9 °F 71.1 °F 91% 29.89 in 10.0 mi South 3.5 mph - 0.01 in Rain Light Rain
1:30 PM 73.4 °F 71.6 °F 94% 29.88 in 10.0 mi South 5.8 mph - 0.01 in Rain Light Rain
1:38 PM 73.4 °F 69.8 °F 88% 29.87 in 10.0 mi Variable 4.6 mph - 0.01 in Rain Light Rain
1:54 PM 70.0 °F 69.1 °F 97% 29.86 in 8.0 mi SSE 8.1 mph - 0.11 in Rain Heavy Rain
2:11 PM 69.8 °F 68.0 °F 94% 29.86 in 5.0 mi Variable 3.5 mph - 0.21 in Rain Heavy Rain
2:54 PM 69.1 °F 68.0 °F 96% 29.84 in 8.0 mi Calm Calm - 0.71 in Rain Heavy Rain
3:54 PM 69.1 °F 68.0 °F 96% 29.82 in 10.0 mi Calm Calm - 0.39 in Rain Light Rain
4:54 PM 70.0 °F 69.1 °F 97% 29.81 in 10.0 mi ESE 3.5 mph - 0.05 in Rain Light Rain
5:03 PM 69.8 °F 68.0 °F 94% 29.81 in 9.0 mi Calm Calm - 0.02 in Rain Rain
5:12 PM 69.8 °F 68.0 °F 94% 29.80 in 6.0 mi Calm Calm - 0.13 in Rain Heavy Rain
5:54 PM 70.0 °F 69.1 °F 97% 29.79 in 7.0 mi Calm Calm - 0.23 in Rain Rain
6:09 PM 69.8 °F 68.0 °F 94% 29.78 in 10.0 mi Calm Calm - 0.04 in Rain Rain
6:28 PM 69.8 °F 68.0 °F 94% 29.77 in 10.0 mi Calm Calm - 0.08 in Rain Rain
6:54 PM 70.0 °F 69.1 °F 97% 29.75 in 10.0 mi Calm Calm - 0.10 in Rain Light Rain
7:28 PM 69.8 °F 68.0 °F 94% 29.76 in 10.0 mi Calm Calm - 0.00 in   Overcast
7:54 PM 69.1 °F 69.1 °F 100% 29.77 in 10.0 mi NW 4.6 mph - 0.00 in   Overcast
8:18 PM 69.8 °F 68.0 °F 94% 29.78 in 10.0 mi Calm Calm - N/A   Overcast
8:52 PM 68.0 °F 66.2 °F 94% 29.77 in 10.0 mi Calm Calm - N/A   Scattered Clouds
8:54 PM 68.0 °F 66.9 °F 96% 29.77 in 10.0 mi Calm Calm - N/A   Scattered Clouds
9:10 PM 68.0 °F 66.2 °F 94% 29.78 in 10.0 mi Calm Calm - N/A   Partly Cloudy
9:54 PM 66.0 °F 64.9 °F 96% 29.77 in 8.0 mi Calm Calm - N/A   Scattered Clouds
10:01 PM 66.2 °F 64.4 °F 94% 29.77 in 6.0 mi Calm Calm - N/A   Mostly Cloudy
10:14 PM 64.4 °F 64.4 °F 100% 29.77 in 9.0 mi Calm Calm - N/A   Partly Cloudy
10:48 PM 66.2 °F 64.4 °F 94% 29.76 in 2.5 mi WSW 4.6 mph - N/A   Mostly Cloudy
10:54 PM 66.0 °F 66.0 °F 100% 29.76 in 1.8 mi WSW 5.8 mph - N/A   Mostly Cloudy
11:11 PM 66.2 °F 66.2 °F 100% 29.76 in 3.0 mi SSW 3.5 mph - N/A   Overcast
11:42 PM 66.2 °F 64.4 °F 94% 29.76 in 10.0 mi Variable 3.5 mph - N/A   Partly Cloudy
11:54 PM 66.0 °F 66.0 °F 100% 29.76 in 10.0 mi Calm Calm - N/A   Partly Cloudy